Location: Neuvy Saint Sepulchre
(46.5953°N, 1.8122°E)
Time: 13:58:15
(UTC+01:00)

Envisat - Pass Details

Date: 21 October 2021
Orbit: 764 x 766 km, 98.2° (Epoch: 29 November)

Event Time Altitude Azimuth Distance (km) Brightness Sun altitude
Rises 19:26:50 0° 212° (SSW) 3,221 6.9 -6.2°
Reaches altitude 10° 19:30:01 10° 233° (SW) 2,301 6.6 -6.7°
Maximum altitude 19:33:07 16° 271° (W) 1,915 6.5 -7.2°
Drops below altitude 10° 19:36:14 10° 309° (NW) 2,312 6.2 -7.8°
Sets 19:39:28 0° 331° (NNW) 3,244 6.6 -8.3°
